Ashland, WI

8:26 PM CST on December 08, 2016 (GMT -0600)
Kennedy Memorial

Weather History for KASX - November, 2013

Change the Weather History Date:

Wednesday, November 20, 2013

  Actual Average Record
Temperature  
Mean Temperature 41 °F -  
Max Temperature 46 °F 37 °F 62 °F (1982)
Min Temperature 36 °F 23 °F -2 °F (2014)
Degree Days  
Heating Degree Days 24    
Moisture  
Dew Point 24 °F    
Average Humidity 53    
Maximum Humidity 82    
Minimum Humidity 35    
Precipitation  
Precipitation 0.00 in - - ()
Sea Level Pressure  
Sea Level Pressure 30.01 in    
Wind  
Wind Speed 12 mph (SSW)    
Max Wind Speed 16 mph    
Max Gust Speed 30 mph    
Visibility 10 miles    
Events      
Averages and records for this station are not official NWS values.
T = Trace of Precipitation, MM = Missing Value Source: NWS Daily Summary

Daily Weather History Graph

Daily Weather History Graph

Search for Another Location

Airport or City:

Trip Planner

Search our weather history database for the weather conditions in past years. The results will help you decide how hot, cold, wet, or windy it might be!

Date:

Astronomy

Nov. 20, 2013 Rise Set
Actual Time 7:13 AM CST 4:25 PM CST
Civil Twilight 6:39 AM CST 4:58 PM CST
Nautical Twilight 6:02 AM CST 5:35 PM CST
Astronomical Twilight 5:26 AM CST 6:11 PM CST
Moon 7:08 PM CST (11/20) 9:38 AM CST (11/20)
Length of Visible Light 10h 18m
Length of Day
9h 12m
Waning Gibbous, 91% of the Moon is Illuminated
Nov 20
Waning Gibbous
Nov 25
Last Quarter
Dec 2
New
Dec 9
First Quarter
Dec 17
Full

Hourly Weather History & Observations

Time (CST) Temp. Windchill Dew Point Humidity Pressure Visibility Wind Dir Wind Speed Gust Speed Precip Events Conditions
12:53 AM 42.1 °F 35.7 °F 18.0 °F 38% 29.98 in 10.0 mi South 11.5 mph 18.4 mph N/A   Overcast
1:53 AM 43.0 °F 36.8 °F 17.1 °F 35% 29.98 in 10.0 mi SSW 11.5 mph 24.2 mph N/A   Overcast
2:53 AM 43.0 °F 35.7 °F 17.1 °F 35% 29.98 in 10.0 mi South 15.0 mph 29.9 mph N/A   Overcast
3:53 AM 43.0 °F 35.7 °F 18.0 °F 37% 29.97 in 10.0 mi South 15.0 mph 24.2 mph N/A   Overcast
4:53 AM 42.1 °F 36.1 °F 19.0 °F 40% 29.97 in 10.0 mi South 10.4 mph 24.2 mph N/A   Overcast
5:53 AM 43.0 °F 35.4 °F 19.0 °F 38% 29.96 in 10.0 mi South 16.1 mph 25.3 mph N/A   Overcast
6:53 AM 43.0 °F 36.0 °F 19.0 °F 38% 29.97 in 10.0 mi SSW 13.8 mph 23.0 mph N/A   Overcast
7:53 AM 43.0 °F 35.7 °F 19.0 °F 38% 29.98 in 10.0 mi SSW 15.0 mph 23.0 mph N/A   Overcast
8:53 AM 43.0 °F 36.4 °F 19.9 °F 40% 30.00 in 10.0 mi SSW 12.7 mph 19.6 mph N/A   Overcast
9:53 AM 43.0 °F 37.2 °F 19.9 °F 40% 30.01 in 10.0 mi SSW 10.4 mph 19.6 mph N/A   Overcast
10:53 AM 43.0 °F 35.4 °F 19.0 °F 38% 30.01 in 10.0 mi SSW 16.1 mph 27.6 mph N/A   Overcast
11:53 AM 44.1 °F 37.7 °F 21.0 °F 40% 30.00 in 10.0 mi SSW 12.7 mph 25.3 mph N/A   Overcast
12:53 PM 46.0 °F 40.2 °F 23.0 °F 40% 29.99 in 10.0 mi SSW 12.7 mph 21.9 mph N/A   Mostly Cloudy
1:53 PM 44.1 °F 38.6 °F 24.1 °F 45% 29.99 in 10.0 mi South 10.4 mph 20.7 mph N/A   Overcast
2:53 PM 43.0 °F 37.2 °F 25.0 °F 49% 30.00 in 10.0 mi SSW 10.4 mph 20.7 mph N/A   Overcast
3:53 PM 41.0 °F 33.9 °F 27.0 °F 57% 30.00 in 10.0 mi South 12.7 mph 19.6 mph N/A   Overcast
4:53 PM 39.0 °F 31.4 °F 30.0 °F 70% 30.03 in 10.0 mi South 12.7 mph 23.0 mph N/A   Overcast
5:03 PM 39.2 °F 32.5 °F 30.2 °F 70% 30.00 in 10.0 mi SSW 10.4 mph 19.6 mph N/A   Overcast
5:53 PM 37.9 °F 32.7 °F 30.0 °F 73% 30.04 in 10.0 mi SSW 6.9 mph - N/A   Overcast
6:53 PM 37.0 °F 31.6 °F 30.0 °F 76% 30.06 in 10.0 mi South 6.9 mph 16.1 mph N/A   Overcast
7:53 PM 37.0 °F 31.6 °F 30.0 °F 76% 30.07 in 10.0 mi SSW 6.9 mph - N/A   Overcast
8:53 PM 37.0 °F 30.4 °F 30.0 °F 76% 30.08 in 10.0 mi SSW 9.2 mph - N/A   Overcast
9:53 PM 37.0 °F 32.4 °F 30.0 °F 76% 30.08 in 10.0 mi SSW 5.8 mph - N/A   Overcast
10:53 PM 36.0 °F 32.1 °F 30.9 °F 82% 30.08 in 10.0 mi SSW 4.6 mph - N/A   Overcast
11:53 PM 36.0 °F 31.1 °F 30.9 °F 82% 30.09 in 10.0 mi SSW 5.8 mph - N/A   Overcast